Wetbulb
51.39 51.51 51.77 51.79 51.68 52.04 52.23 52.02 51.89 52.05 52.28 52.46 52.63 52.73 52.48 52.15 51.20 45.82 42.38 44.85 43.52 37.38 37.06 39.95 40.45 36.82 37.24 35.77 31.30 33.97 34.90 36.63 36.53 33.41 34.07 33.66 32.76 34.89 35.18 39.31 36.55 35.69 36.45 37.76 39.74 38.53 38.43 52.94 53.23 47.89 50.05 52.40 56.75 58.32
51.14 51.22 51.46 51.88 52.13 52.12 52.24 52.20 52.28 52.19 52.14 52.27 52.29 52.48 52.60 52.08 51.12 48.44 39.41 44.19 47.60 40.82 37.39 42.88 43.65 44.40 42.99 41.48 35.63 34.07 32.85 33.15 36.87 34.04 34.08 34.56 34.51 37.08 36.37 36.42 43.19 38.90 38.71 37.32 41.34 41.93 48.72 50.96 51.10 53.55 55.19 53.93 54.87 53.77
51.04 51.11 51.27 51.47 51.70 51.93 52.12 51.91 52.17 51.84 51.83 51.92 52.02 52.21 52.44 52.15 51.56 48.69 42.46 42.10 42.32 39.58 37.84 37.55 36.97 41.73 43.68 44.13 44.63 33.84 34.50 36.39 36.84 38.32 34.94 34.59 32.83 35.34 33.74 36.71 37.58 41.73 42.20 39.13 42.89 44.71 45.90 49.36 51.06 51.55 53.00 58.04 59.31 60.20
51.17 51.19 51.18 51.16 51.27 51.42 51.77 51.91 51.78 51.63 51.72 51.53 51.67 51.94 52.34 52.31 51.65 50.32 42.72 44.27 43.42 38.02 33.02 33.90 43.41 40.06 44.68 42.98 42.96 42.39 41.30 37.68 37.38 37.00 33.76 33.12 32.43 36.28 34.38 35.49 34.48 39.05 40.46 40.37 44.09 44.22 46.58 48.45 49.37 50.66 52.21 57.82 59.21 60.77
50.93 50.99 51.06 51.13 51.15 51.40 51.44 51.50 51.66 51.38 51.22 51.17 51.51 51.82 51.86 52.04 51.65 50.01 45.47 45.01 46.23 40.28 33.50 33.75 39.74 41.94 41.43 40.63 41.49 41.13 38.88 35.55 33.44 32.24 32.05 31.52 33.99 34.28 34.98 34.32 33.43 38.74 39.67 39.24 38.22 42.02 43.50 44.71 47.71 49.89 51.69 55.77 57.51 59.51
50.81 50.92 51.00 50.96 51.09 51.13 51.25 51.36 51.56 51.30 51.28 51.10 51.33 51.48 51.83 51.55 51.41 45.81 39.31 46.46 47.40 47.18 40.28 34.63 37.91 39.39 42.25 41.74 40.25 40.63 38.53 36.48 35.19 33.23 32.19 33.77 36.94 34.52 30.01 30.68 37.07 39.99 41.36 40.48 39.62 44.23 44.93 46.71 48.76 51.50 50.44 55.77 59.85 59.31
50.59 50.61 50.91 50.89 50.99 50.48 50.35 50.25 50.46 51.17 51.33 51.23 51.12 51.15 51.33 51.41 49.76 42.49 40.69 46.03 48.96 47.88 40.38 34.88 32.75 38.28 42.56 39.33 38.99 38.88 38.86 37.74 36.63 33.99 33.52 33.57 35.32 35.13 31.02 31.24 38.07 40.00 41.89 42.95 44.28 45.44 43.67 46.00 45.66 49.19 53.27 57.40 58.72 59.92
50.45 50.69 50.83 50.97 50.20 50.20 50.20 49.96 50.02 50.57 51.18 51.19 51.02 51.02 51.23 51.45 50.57 46.02 48.21 49.97 48.67 44.07 40.73 35.13 33.06 34.68 45.38 41.09 36.23 38.85 36.87 35.30 35.01 35.05 34.50 35.02 34.45 33.90 31.02 35.30 38.33 41.17 42.41 43.33 44.33 46.22 44.87 46.81 48.76 50.18 53.99 56.34 57.36 57.77
50.73 50.60 50.88 50.49 50.26 50.63 50.41 50.05 50.14 50.05 51.04 51.09 51.14 51.17 49.61 46.56 43.45 45.37 51.44 50.07 48.40 43.13 36.70 36.37 29.32 31.45 46.00 43.64 43.53 40.82 39.82 34.74 37.89 33.81 35.55 34.84 33.83 29.96 35.09 37.34 39.43 40.38 40.00 41.34 44.07 44.31 45.02 45.43 47.24 50.03 52.97 54.09 56.60 57.48
50.93 50.27 50.56 50.27 50.71 50.48 50.64 50.54 50.74 50.91 50.63 50.94 48.22 44.59 41.95 45.30 51.75 49.93 45.02 40.69 40.46 40.89 39.81 34.27 38.31 33.09 36.72 39.63 41.17 40.28 40.12 36.12 31.23 34.57 36.79 34.30 34.77 39.55 40.46 40.50 39.49 39.62 42.01 43.33 41.75 41.68 42.80 43.78 47.90 50.06 52.11 55.11 57.97 58.43
50.61 50.15 50.08 50.40 50.34 50.79 51.26 51.38 51.17 50.73 49.98 46.89 45.15 43.21 47.00 51.44 46.56 42.48 36.39 34.21 34.41 32.46 34.60 36.12 36.51 33.21 38.57 33.77 36.64 42.57 38.65 38.63 33.14 35.26 33.61 31.81 31.29 37.95 42.07 42.12 43.32 43.61 43.36 42.63 43.99 44.48 46.07 46.46 46.25 49.99 53.08 56.32 57.58 59.08
50.52 50.09 50.12 50.10 50.46 50.79 51.45 51.39 50.95 47.81 47.47 47.21 46.49 48.60 47.70 43.88 40.99 35.53 32.82 33.35 31.91 32.49 36.08 34.57 37.43 38.79 40.50 42.46 39.30 41.04 37.50 38.20 33.42 40.61 37.93 34.46 36.14 39.79 42.49 43.34 43.74 43.87 44.39 44.16 45.16 45.21 45.62 46.03 47.73 53.24 54.17 55.48 57.12 59.89
50.36 49.89 50.04 50.49 51.03 51.49 51.67 51.40 51.10 50.89 50.23 49.09 46.43 44.00 42.57 41.51 36.45 32.11 31.93 32.11 31.18 34.23 35.37 36.27 37.57 39.92 39.81 40.74 39.66 38.25 34.24 34.28 38.37 35.64 35.27 37.88 41.91 42.82 42.22 43.02 44.24 45.68 47.72 46.80 44.89 45.67 48.22 50.01 55.63 55.28 55.68 57.42 59.38 61.16
50.07 49.83 50.38 50.97 51.31 51.30 51.64 51.32 51.20 50.61 48.69 46.78 45.46 37.73 41.75 40.23 41.66 41.32 42.01 44.54 44.90 39.48 37.36 39.17 39.92 38.98 40.37 37.13 38.26 31.75 35.43 33.00 31.34 30.99 32.44 38.56 40.40 41.21 42.19 42.79 43.95 44.21 46.34 45.42 44.16 45.15 46.55 53.81 58.32 58.04 58.28 58.72 59.04 59.57
50.65 50.94 51.09 50.93 52.34 52.09 51.56 51.15 51.49 48.94 47.84 47.48 46.50 39.49 42.40 46.80 47.44 48.26 49.03 47.94 45.32 42.06 41.03 40.17 40.89 40.36 36.77 34.01 33.36 32.99 32.11 31.55 32.10 32.25 34.23 39.17 45.39 50.21 46.44 43.20 43.23 44.37 47.66 48.04 45.62 45.65 49.56 56.13 56.41 57.13 58.62 57.60 58.36 59.55
50.45 50.80 51.97 52.58 51.87 51.53 50.85 50.64 49.81 50.76 52.17 49.28 47.85 45.25 46.62 44.88 46.08 46.60 46.96 46.45 46.08 42.38 43.18 43.09 40.51 38.53 37.28 35.74 33.52 32.47 32.29 31.91 37.14 41.07 44.85 46.53 47.90 49.29 50.05 51.05 52.26 52.05 52.02 53.36 54.72 56.03 56.71 57.16 56.69 57.45 58.56 58.72 58.08 58.12
49.83 49.08 52.27 51.28 50.83 50.79 51.41 51.40 51.82 50.64 48.33 47.07 45.73 47.52 46.37 45.41 45.45 47.94 47.77 48.36 50.31 46.35 43.48 45.32 42.06 41.45 44.31 41.10 40.39 41.86 37.07 41.30 44.71 46.16 47.88 48.69 48.39 48.40 49.62 50.85 51.54 52.02 52.69 54.07 54.85 55.83 56.09 56.50 56.90 55.61 54.73 56.72 58.16 58.42
48.51 52.41 51.74 51.01 50.35 50.81 53.85 51.72 51.36 49.98 48.25 48.47 44.66 46.55 47.27 47.39 46.03 47.01 48.99 50.92 48.39 46.80 44.44 44.21 47.05 42.71 41.09 39.92 41.68 45.42 47.57 48.23 48.99 48.50 48.88 49.80 50.77 49.91 50.45 50.13 51.20 51.95 52.09 52.66 53.51 53.70 54.16 54.67 54.47 54.94 55.66 56.45 56.96 56.86
49.01 49.42 50.63 51.01 50.27 47.36 51.49 51.79 52.01 47.82 48.42 49.24 49.36 48.38 47.53 46.91 46.93 47.24 47.73 48.24 48.60 47.79 45.40 45.37 43.45 41.76 42.88 45.59 45.52 47.25 48.31 49.18 48.84 49.74 50.97 52.12 52.61 52.23 51.93 52.65 52.88 52.14 52.15 52.38 52.51 52.59 53.03 52.58 53.15 55.10 55.46 55.88 55.14 55.80
50.42 50.75 51.22 51.73 51.85 50.51 51.69 49.51 52.66 47.03 44.76 48.91 49.63 45.84 45.31 45.03 46.69 46.13 46.36 47.44 45.22 43.67 42.08 41.93 42.95 45.32 44.48 45.86 48.23 48.83 49.51 48.29 49.92 46.42 48.83 50.84 51.95 52.38 52.31 52.13 51.56 51.92 52.66 53.11 53.12 51.21 52.90 52.95 53.41 53.35 52.84 54.10 53.52 54.15
52.74 54.82 54.15 51.31 51.09 50.04 51.64 49.70 47.99 50.31 49.96 45.50 47.69 49.35 45.38 46.78 44.82 44.16 44.50 44.90 42.54 41.64 41.61 42.29 44.35 47.04 47.42 47.11 46.55 46.31 47.96 48.58 48.19 49.05 47.89 46.96 49.17 48.15 47.30 48.78 50.53 49.46 49.18 49.57 49.90 51.05 50.27 51.23 51.67 53.63 54.10 54.20 54.57 55.27
53.78 55.94 54.19 55.60 53.41 53.57 49.96 49.87 48.03 48.07 47.43 49.45 50.07 49.15 45.75 44.35 42.33 42.98 44.19 42.60 41.95 44.24 45.80 45.94 45.46 44.87 45.90 45.76 44.11 45.63 45.45 46.09 45.70 47.35 47.79 46.64 43.18 42.44 42.85 44.65 45.39 43.86 44.09 45.19 45.09 44.64 46.13 47.24 47.42 50.73 52.89 52.44 51.97 52.86
54.13 53.94 54.31 55.64 51.12 43.76 44.55 51.40 46.43 45.29 43.90 45.62 48.40 47.57 45.89 45.59 47.57 49.31 42.29 42.44 44.65 47.01 46.04 45.42 45.74 45.02 44.10 45.31 45.29 44.58 44.85 44.79 45.33 45.07 45.42 43.59 43.67 42.47 42.12 42.56 43.72 42.51 41.89 43.48 44.22 42.73 42.77 42.86 45.59 48.36 52.86 53.48 53.28 52.39
54.11 53.14 51.98 49.92 48.04 45.47 50.60 47.23 47.26 43.98 44.49 45.02 44.44 44.60 45.11 45.19 48.17 45.65 41.90 41.29 42.94 46.07 45.58 44.93 45.51 42.30 43.32 42.63 42.67 42.40 42.36 45.12 43.69 44.96 45.15 43.91 41.27 40.20 41.12 41.24 42.00 42.03 41.54 41.96 42.98 42.36 42.24 42.64 42.37 45.14 46.36 49.20 51.71 52.17
46.26 45.14 45.24 38.00 47.32 45.55 46.42 46.01 45.34 43.37 42.86 43.60 43.59 43.22 44.90 47.11 42.75 39.79 37.97 40.66 43.74 44.57 45.60 46.16 45.62 45.56 39.58 39.51 40.35 41.96 42.25 42.34 41.21 40.98 42.27 42.58 40.65 39.42 39.61 39.88 40.33 39.18 40.73 40.70 40.09 40.61 40.70 42.13 42.74 43.15 44.48 45.67 49.11 46.73
40.34 49.50 45.36 46.56 46.91 45.97 45.28 42.04 41.81 41.44 42.52 43.24 42.81 44.74 44.11 39.84 36.84 36.23 39.02 41.10 42.76 44.18 45.00 45.29 44.25 44.56 39.26 39.14 38.68 39.07 39.49 41.91 42.38 39.41 39.96 40.86 40.32 39.01 37.54 37.08 37.18 38.40 40.02 38.80 38.70 39.71 40.03 40.46 40.87 41.56 43.08 43.90 42.68 46.41
43.53 47.50 49.08 52.39 50.11 47.66 45.53 45.07 44.34 41.94 41.63 40.78 40.01 39.28 37.87 35.08 33.49 36.09 40.17 42.39 42.35 44.76 46.33 46.58 45.49 45.05 37.67 37.45 38.43 38.68 40.47 40.93 39.60 39.35 39.92 39.92 39.60 39.48 38.45 36.69 35.76 37.52 39.03 40.25 40.06 39.50 39.03 39.27 39.77 40.83 40.92 41.79 42.78 43.58
48.34 48.73 46.46 48.17 48.00 46.96 44.62 43.49 42.75 41.26 41.84 42.06 39.03 35.58 34.48 36.13 34.93 40.57 42.55 45.39 47.30 48.06 46.53 46.59 45.44 39.70 38.97 38.53 37.92 37.72 37.54 38.67 39.02 38.68 38.22 38.87 38.64 38.99 39.23 39.86 39.94 38.86 39.76 39.45 39.40 39.50 38.98 38.86 39.29 40.21 39.80 38.76 37.97 39.56
47.51 49.60 48.90 45.32 46.22 46.28 45.85 44.16 42.86 43.16 44.05 41.52 38.36 37.33 38.20 40.59 43.14 43.21 44.77 46.14 46.85 46.38 41.32 38.41 38.50 39.46 39.28 39.36 39.13 39.38 38.08 37.05 35.65 33.51 32.38 32.05 33.16 35.20 38.27 38.40 38.46 38.81 39.07 39.04 39.70 39.81 39.45 39.61 39.29 39.03 38.92 38.77 38.24 38.14
47.31 50.07 47.76 47.31 45.08 44.29 45.49 45.80 43.35 43.95 43.62 43.30 43.14 41.99 42.97 43.32 45.48 47.24 46.29 46.44 43.75 40.21 39.50 38.53 37.59 37.90 36.24 36.16 36.36 36.36 36.68 36.05 34.98 33.03 30.78 30.14 30.93 34.09 35.20 36.02 36.55 37.02 37.66 38.03 37.29 38.01 38.70 38.82 38.65 39.05 37.89 37.41 36.94 36.36
50.76 49.27 48.68 48.29 46.88 47.62 47.78 47.79 46.37 45.70 45.78 45.49 46.20 44.09 43.56 44.78 46.54 47.19 45.56 43.73 41.61 40.48 39.19 37.69 37.43 37.53 36.86 35.95 35.17 34.10 32.33 34.54 35.15 35.18 34.37 33.31 33.59 33.90 34.71 34.95 36.01 36.56 36.15 36.70 36.57 36.69 36.07 35.85 35.70 35.73 35.87 35.41 35.54 35.07
49.71 48.81 47.23 46.40 46.65 49.24 50.32 47.94 46.70 45.62 46.42 44.94 46.44 46.55 42.97 43.23 41.87 44.08 43.90 43.58 40.74 38.89 40.35 39.13 37.29 36.58 37.23 37.18 37.75 37.06 36.98 35.45 34.97 34.95 35.00 34.23 33.90 34.85 34.74 33.88 35.15 36.77 37.78 37.20 36.37 36.32 36.07 35.27 34.62 34.66 34.23 34.99 35.05 35.47
48.07 47.05 47.37 49.08 47.71 47.63 49.21 48.27 46.67 45.85 46.92 45.64 45.47 45.75 45.86 44.10 40.47 42.91 45.45 43.89 41.18 39.45 39.05 39.41 39.30 39.30 38.77 38.57 38.20 37.63 37.29 35.78 35.09 35.41 35.50 35.06 34.77 35.16 34.27 33.30 34.25 35.51 36.34 36.14 35.78 35.91 36.13 36.10 35.26 35.71 35.43 35.48 35.05 35.02
MSLP
1025.58 1025.13 1024.64 1024.01 1023.51 1023.06 1022.54 1022.02 1021.57 1021.09 1020.68 1020.27 1019.73 1019.23 1018.96 1018.76 1018.63 1018.83 1018.65 1018.25 1018.50 1018.03 1016.79 1016.11 1015.64 1015.55 1014.95 1014.77 1014.73 1013.73 1012.46 1011.67 1011.54 1011.69 1011.66 1010.88 1009.58 1008.09 1006.93 1006.05 1005.50 1004.99 1004.64 1003.49 1002.36 1001.34 1000.63 998.69 996.65 998.53 999.92 998.73 997.73 996.90
1024.88 1024.40 1023.86 1023.33 1022.89 1022.41 1021.81 1021.36 1020.87 1020.41 1020.05 1019.62 1019.12 1018.71 1018.40 1018.28 1018.20 1018.29 1018.50 1017.53 1017.49 1017.78 1016.50 1015.18 1014.86 1014.30 1014.38 1013.85 1014.36 1014.02 1013.79 1013.15 1012.47 1012.86 1012.88 1012.30 1011.41 1010.17 1009.06 1007.94 1006.65 1006.74 1006.74 1005.99 1004.20 1004.12 1003.48 1002.20 1001.74 1001.54 1000.81 999.79 998.55 997.37
1024.15 1023.62 1023.05 1022.55 1022.14 1021.69 1021.03 1020.68 1020.10 1019.79 1019.36 1018.93 1018.53 1018.18 1017.73 1017.60 1017.61 1017.77 1017.91 1017.60 1017.54 1017.13 1015.61 1014.58 1013.24 1012.49 1012.79 1012.67 1012.61 1013.70 1013.29 1012.79 1012.69 1012.66 1013.06 1012.86 1012.28 1011.43 1010.70 1009.87 1008.70 1007.74 1006.90 1006.22 1005.02 1004.34 1003.83 1002.53 1002.04 1001.31 1000.95 1000.18 999.29 998.47
1023.29 1022.80 1022.30 1021.74 1021.32 1020.87 1020.26 1019.88 1019.42 1018.98 1018.65 1018.26 1017.85 1017.47 1017.16 1016.93 1016.99 1017.08 1017.57 1017.19 1017.40 1017.29 1016.63 1013.93 1012.39 1012.14 1011.37 1011.44 1011.66 1011.97 1012.07 1012.08 1012.66 1012.70 1013.07 1013.27 1013.08 1011.98 1011.64 1010.83 1010.09 1009.05 1007.94 1007.06 1005.85 1004.92 1003.39 1002.72 1002.92 1002.66 1001.51 1000.63 999.73 998.59
1022.41 1021.94 1021.51 1020.95 1020.47 1019.99 1019.50 1019.04 1018.67 1018.29 1017.99 1017.45 1017.11 1016.81 1016.52 1016.43 1016.44 1016.49 1016.66 1016.37 1016.50 1016.97 1016.37 1014.76 1013.08 1010.93 1010.52 1010.53 1010.61 1010.74 1011.44 1011.89 1012.46 1013.09 1013.25 1013.41 1012.69 1012.25 1011.49 1010.80 1009.53 1008.50 1007.90 1007.95 1007.47 1007.02 1006.86 1005.42 1004.12 1003.25 1002.33 1001.24 1000.57 999.89
1021.70 1021.17 1020.66 1020.02 1019.64 1019.16 1018.70 1018.31 1017.97 1017.63 1017.25 1016.75 1016.41 1016.12 1015.91 1015.87 1015.95 1016.10 1016.05 1015.82 1015.72 1016.08 1016.01 1015.40 1013.35 1011.29 1010.27 1010.16 1010.37 1010.45 1010.73 1011.23 1011.93 1012.37 1012.57 1012.09 1011.54 1011.81 1011.66 1010.45 1008.78 1007.93 1007.50 1007.69 1007.49 1006.49 1006.26 1005.77 1004.75 1003.46 1002.98 1001.74 1000.87 1000.09
1021.01 1020.47 1019.92 1019.32 1018.87 1018.35 1017.89 1017.58 1017.33 1016.99 1016.33 1015.98 1015.74 1015.45 1015.30 1015.09 1015.30 1015.73 1015.76 1015.75 1015.57 1015.87 1016.08 1015.53 1014.08 1011.42 1010.09 1009.91 1010.08 1010.17 1010.06 1010.61 1011.18 1011.67 1011.86 1011.69 1011.34 1011.20 1010.82 1009.68 1008.40 1008.12 1007.76 1007.28 1006.73 1006.20 1005.59 1005.21 1004.67 1003.69 1002.91 1001.91 1000.90 1000.11
1020.43 1019.84 1019.23 1018.70 1018.23 1017.75 1017.25 1016.88 1016.53 1015.97 1015.40 1015.22 1015.06 1014.68 1014.50 1014.42 1014.59 1014.88 1014.97 1015.20 1015.41 1016.00 1016.23 1015.74 1014.09 1012.27 1010.43 1010.37 1010.53 1010.07 1010.35 1010.50 1010.64 1010.97 1010.82 1010.87 1010.81 1010.52 1009.69 1007.85 1007.38 1007.01 1007.05 1006.84 1006.35 1006.07 1005.54 1005.11 1004.41 1003.61 1002.93 1001.91 1001.22 1000.56
1019.87 1019.33 1018.73 1018.26 1017.71 1017.05 1016.65 1016.43 1016.09 1015.59 1015.15 1014.90 1014.61 1014.30 1014.47 1014.63 1014.73 1014.71 1014.83 1015.17 1015.52 1016.51 1016.05 1015.56 1014.52 1012.86 1010.96 1011.05 1010.77 1010.39 1010.42 1010.78 1010.28 1010.29 1010.07 1010.30 1009.63 1009.06 1006.91 1006.64 1005.95 1006.11 1006.32 1006.23 1005.85 1005.57 1004.87 1004.56 1004.27 1003.48 1002.99 1002.32 1001.90 1001.21
1019.23 1018.79 1018.34 1017.87 1017.12 1016.74 1016.34 1015.79 1015.26 1014.99 1014.78 1014.61 1014.64 1014.54 1014.42 1014.52 1014.50 1014.97 1015.41 1015.68 1015.91 1015.99 1015.93 1015.25 1014.35 1013.38 1012.12 1011.57 1011.29 1011.06 1010.64 1010.61 1010.30 1009.56 1009.06 1008.75 1007.06 1006.17 1005.80 1005.38 1005.05 1005.41 1005.44 1005.49 1005.48 1005.27 1004.78 1004.21 1003.37 1003.06 1002.96 1002.29 1001.91 1001.48
1018.78 1018.32 1017.89 1017.36 1016.63 1016.25 1015.79 1015.40 1015.13 1014.97 1014.58 1014.66 1014.63 1014.55 1014.58 1014.51 1014.81 1015.01 1015.43 1015.89 1016.13 1016.12 1015.58 1014.67 1014.06 1013.35 1012.41 1012.09 1011.63 1011.38 1011.00 1010.58 1010.05 1008.99 1008.72 1007.59 1005.47 1004.42 1004.36 1004.40 1003.69 1004.02 1004.32 1004.36 1004.25 1004.01 1004.02 1003.78 1003.45 1003.08 1002.34 1001.63 1001.30 1001.01
1018.31 1017.89 1017.40 1016.83 1016.08 1015.63 1015.46 1015.30 1015.02 1015.16 1014.98 1014.88 1014.66 1014.41 1014.44 1014.64 1014.55 1014.81 1014.91 1015.38 1015.33 1014.92 1014.45 1014.16 1013.46 1013.11 1012.45 1012.04 1011.65 1011.43 1011.05 1010.89 1009.79 1009.40 1008.42 1006.58 1004.63 1004.17 1004.00 1003.75 1003.49 1003.39 1003.39 1003.02 1003.10 1003.15 1003.27 1003.11 1003.03 1002.75 1002.27 1001.66 1001.23 1000.95
1017.84 1017.34 1016.87 1016.26 1015.44 1015.13 1014.99 1014.85 1014.63 1014.69 1014.59 1014.41 1014.44 1014.11 1014.04 1014.22 1013.84 1013.85 1013.51 1013.40 1013.52 1013.41 1013.15 1013.12 1012.79 1012.49 1012.55 1012.44 1011.88 1011.58 1011.26 1010.70 1010.16 1009.08 1007.57 1005.45 1004.48 1003.80 1003.29 1003.22 1002.91 1002.77 1002.27 1001.47 1001.65 1002.18 1002.39 1002.36 1002.11 1002.00 1001.50 1000.94 1000.58 1000.58
1017.25 1016.65 1016.14 1015.52 1014.82 1014.68 1014.49 1014.38 1014.31 1014.43 1014.54 1014.32 1013.94 1013.54 1013.53 1013.32 1013.01 1012.44 1011.69 1011.07 1011.09 1011.66 1012.09 1012.34 1012.06 1012.04 1011.98 1012.10 1011.79 1011.49 1011.23 1011.05 1009.95 1008.59 1006.86 1005.03 1003.16 1002.03 1001.50 1001.70 1002.29 1001.54 1001.23 1000.71 1000.87 1001.44 1001.89 1002.03 1001.69 1001.06 1000.86 1000.57 1000.40 1000.43
1016.54 1015.82 1015.27 1014.65 1014.20 1014.08 1014.13 1014.03 1014.08 1014.53 1014.42 1014.13 1013.93 1013.99 1013.59 1012.90 1012.32 1011.45 1010.89 1010.39 1010.64 1010.96 1011.31 1011.57 1011.45 1011.62 1011.65 1011.66 1011.67 1011.34 1010.74 1009.98 1009.14 1008.41 1007.03 1004.50 1002.23 999.85 998.88 1000.27 1001.00 1001.18 1001.05 999.98 1000.39 1000.94 1001.26 1001.48 1001.27 1001.21 1000.98 1001.01 1000.91 1000.65
1015.97 1015.00 1014.39 1014.15 1013.97 1013.55 1013.59 1013.67 1014.15 1014.07 1013.92 1014.06 1013.81 1013.94 1013.14 1012.67 1011.86 1010.72 1010.14 1009.63 1009.59 1010.23 1010.74 1010.75 1010.43 1010.46 1010.69 1010.72 1010.89 1010.62 1010.26 1009.82 1008.61 1007.39 1006.21 1004.68 1002.64 1001.55 1000.70 1000.71 1000.68 1000.43 1000.19 1000.03 1000.37 1000.62 1001.18 1001.48 1001.82 1001.77 1001.87 1001.71 1001.52 1001.45
1015.66 1014.92 1014.17 1013.84 1013.28 1012.77 1012.79 1013.06 1013.67 1013.72 1013.83 1013.99 1013.98 1013.58 1013.29 1012.66 1012.18 1011.27 1010.54 1009.99 1008.99 1009.21 1009.72 1009.67 1009.92 1010.04 1009.77 1009.74 1009.55 1009.39 1009.75 1009.53 1008.62 1007.50 1006.55 1005.59 1004.46 1003.88 1002.83 1002.20 1002.13 1001.76 1001.36 1001.48 1001.57 1001.49 1001.78 1001.94 1001.80 1002.15 1002.34 1002.58 1002.53 1002.76
1015.33 1014.16 1013.94 1013.89 1013.72 1012.96 1012.74 1012.80 1012.80 1013.30 1013.56 1013.60 1013.63 1013.41 1013.11 1012.58 1012.17 1011.52 1010.93 1010.33 1009.63 1009.48 1009.93 1010.28 1010.28 1010.19 1010.44 1010.37 1009.94 1009.83 1009.30 1009.27 1008.05 1007.65 1007.01 1006.31 1005.81 1005.21 1004.29 1003.27 1003.21 1003.11 1002.87 1002.87 1002.79 1003.09 1002.93 1002.73 1003.17 1003.79 1002.76 1002.97 1002.95 1003.20
1015.18 1014.58 1013.86 1013.83 1014.16 1014.07 1013.19 1012.20 1011.94 1013.00 1013.09 1013.35 1013.36 1013.17 1013.00 1012.86 1012.36 1011.78 1011.43 1010.93 1010.40 1010.04 1010.23 1010.43 1011.01 1011.53 1011.47 1011.23 1010.83 1010.23 1009.73 1009.35 1008.95 1008.35 1007.45 1006.97 1006.71 1005.97 1005.79 1005.44 1004.97 1004.17 1004.19 1004.48 1004.37 1004.34 1004.25 1004.17 1004.53 1004.26 1004.65 1004.20 1003.64 1003.81
1014.11 1013.54 1013.23 1013.42 1013.71 1013.74 1013.07 1012.07 1011.41 1012.32 1012.83 1013.06 1013.15 1013.35 1013.41 1013.34 1012.89 1012.58 1012.34 1011.99 1011.61 1011.40 1011.77 1012.27 1012.67 1012.49 1012.13 1011.49 1010.87 1010.44 1009.96 1009.20 1008.81 1008.64 1008.47 1008.08 1007.79 1007.27 1006.86 1006.60 1006.55 1006.30 1005.98 1005.67 1005.61 1005.27 1005.04 1005.04 1004.65 1004.51 1005.49 1005.13 1004.31 1004.42
1013.49 1012.95 1012.73 1013.19 1013.44 1013.60 1013.39 1012.93 1012.56 1012.71 1012.73 1012.85 1012.82 1013.20 1013.57 1013.49 1013.80 1013.73 1013.51 1013.16 1013.01 1013.32 1013.63 1013.56 1013.25 1012.59 1011.93 1011.56 1011.01 1010.47 1010.21 1009.64 1009.38 1009.13 1008.97 1009.05 1008.67 1008.30 1008.15 1007.84 1007.39 1006.98 1006.71 1006.65 1006.50 1006.51 1006.78 1006.74 1006.36 1005.82 1005.59 1005.38 1005.05 1005.23
1013.46 1012.60 1012.83 1012.69 1012.97 1012.93 1013.54 1013.81 1013.94 1013.81 1013.91 1014.13 1013.41 1013.61 1013.77 1014.15 1014.41 1014.33 1014.25 1014.65 1014.93 1015.27 1015.07 1014.63 1013.99 1013.36 1012.81 1012.56 1012.17 1011.39 1010.91 1010.33 1010.02 1009.65 1009.47 1009.52 1009.76 1009.62 1009.37 1009.12 1008.69 1008.55 1008.27 1008.13 1007.95 1007.67 1007.45 1007.06 1006.82 1006.31 1005.81 1005.99 1006.12 1006.04
1013.28 1013.15 1013.07 1012.91 1013.16 1013.93 1015.03 1014.03 1014.23 1014.31 1014.57 1014.18 1014.02 1014.25 1014.59 1014.96 1015.14 1014.78 1015.97 1016.87 1016.80 1016.34 1015.91 1015.15 1014.29 1013.65 1013.60 1013.31 1012.63 1012.17 1011.77 1011.50 1011.21 1011.01 1011.06 1010.94 1010.90 1010.74 1010.36 1010.26 1010.09 1009.84 1009.69 1009.39 1009.09 1008.93 1008.85 1008.56 1008.12 1007.14 1006.63 1006.48 1007.23 1007.21
1013.29 1013.63 1013.61 1013.61 1013.91 1014.31 1014.16 1014.01 1014.25 1014.60 1014.77 1014.67 1014.55 1015.11 1015.77 1016.13 1016.45 1016.76 1017.71 1018.43 1018.06 1017.21 1016.37 1016.13 1015.67 1014.85 1014.07 1013.93 1013.95 1013.65 1013.22 1012.58 1012.30 1011.99 1011.90 1011.90 1011.99 1012.17 1011.98 1011.73 1011.26 1011.03 1011.05 1010.89 1010.47 1010.04 1009.59 1009.10 1008.66 1008.22 1007.86 1007.87 1008.24 1008.23
1014.45 1014.41 1014.30 1014.95 1014.74 1014.71 1014.11 1013.76 1013.86 1014.37 1014.33 1014.63 1014.85 1015.71 1016.49 1016.66 1017.49 1018.55 1019.36 1019.65 1018.85 1018.02 1017.41 1017.06 1016.58 1016.21 1015.71 1015.35 1015.20 1014.87 1014.26 1013.81 1013.58 1013.61 1013.53 1013.21 1013.38 1013.23 1013.08 1012.95 1012.69 1012.49 1012.07 1011.68 1011.45 1011.20 1010.83 1010.23 1010.07 1009.72 1009.17 1009.09 1009.04 1009.05
1014.99 1016.08 1016.23 1015.56 1014.90 1015.20 1014.47 1014.09 1014.02 1013.99 1014.21 1014.80 1015.75 1016.42 1017.23 1018.06 1019.03 1019.83 1020.10 1019.77 1019.37 1018.77 1018.29 1018.08 1017.91 1017.27 1016.65 1016.11 1016.22 1015.97 1015.72 1015.02 1014.81 1015.16 1015.36 1014.98 1014.73 1014.57 1014.60 1014.38 1014.08 1013.71 1013.11 1012.83 1012.62 1012.39 1012.07 1011.60 1011.15 1010.80 1010.53 1010.23 1010.13 1010.07
1015.54 1016.20 1016.29 1015.25 1015.06 1014.97 1014.38 1013.91 1013.75 1014.25 1014.84 1015.79 1016.78 1017.46 1018.11 1018.87 1019.57 1019.95 1019.73 1019.27 1019.08 1018.24 1018.04 1017.83 1017.71 1017.41 1017.18 1016.94 1016.71 1016.56 1016.36 1016.09 1016.15 1016.46 1016.25 1016.01 1015.84 1015.69 1015.56 1015.35 1015.14 1015.01 1014.09 1013.62 1013.41 1013.10 1012.97 1012.58 1012.20 1011.95 1011.87 1011.62 1011.54 1011.35
1015.65 1015.52 1015.25 1014.64 1014.38 1014.31 1014.35 1014.03 1014.51 1015.05 1015.50 1016.39 1017.42 1018.19 1018.69 1018.90 1019.26 1019.31 1019.18 1018.34 1017.96 1017.69 1017.77 1017.53 1017.30 1017.11 1017.05 1017.19 1017.30 1017.23 1017.19 1017.11 1017.02 1016.87 1016.53 1016.51 1016.52 1016.32 1016.06 1015.73 1015.45 1015.09 1014.82 1014.55 1014.14 1013.63 1013.51 1013.30 1013.16 1013.05 1013.10 1013.24 1013.27 1013.05
1015.15 1014.57 1014.39 1014.29 1014.29 1014.13 1014.13 1014.39 1015.05 1015.44 1015.63 1016.31 1017.36 1018.06 1018.48 1018.70 1018.54 1018.49 1018.16 1017.67 1017.42 1017.53 1017.74 1017.87 1017.75 1017.43 1017.44 1017.64 1017.91 1017.94 1018.02 1017.94 1017.83 1017.88 1017.96 1017.93 1017.59 1017.35 1017.01 1016.73 1016.33 1015.88 1015.41 1014.96 1014.50 1014.31 1014.23 1014.00 1013.97 1013.95 1014.05 1014.16 1014.31 1014.25
1014.05 1013.67 1013.74 1013.94 1014.17 1014.26 1014.43 1014.55 1015.32 1015.61 1015.83 1016.31 1017.05 1017.79 1018.08 1018.16 1017.90 1017.48 1017.47 1017.45 1017.55 1017.61 1017.78 1017.88 1017.91 1017.91 1018.21 1018.26 1018.71 1018.86 1018.84 1018.72 1018.73 1018.85 1018.99 1019.03 1018.96 1018.39 1017.79 1017.43 1017.03 1016.57 1016.07 1015.67 1015.44 1015.11 1014.79 1014.61 1014.60 1014.56 1014.62 1014.73 1014.86 1014.88
1012.74 1012.80 1012.91 1013.10 1013.56 1014.03 1014.40 1014.75 1015.31 1015.87 1016.37 1016.95 1017.20 1017.73 1018.25 1018.21 1017.71 1017.29 1017.30 1017.39 1017.51 1017.57 1017.86 1018.30 1018.40 1018.40 1018.61 1018.72 1018.78 1019.07 1019.44 1019.52 1019.32 1019.22 1019.19 1019.20 1018.95 1018.65 1018.34 1017.98 1017.57 1017.09 1016.68 1016.40 1016.23 1016.08 1015.83 1015.68 1015.63 1015.59 1015.53 1015.47 1015.42 1015.42
1011.86 1011.71 1011.86 1012.56 1013.42 1013.97 1014.31 1014.86 1015.38 1015.97 1016.73 1017.31 1017.75 1018.03 1018.34 1018.31 1018.10 1017.57 1017.32 1017.31 1017.73 1018.04 1018.07 1018.29 1018.61 1018.96 1018.75 1018.61 1018.61 1018.75 1019.01 1019.45 1019.59 1019.57 1019.60 1019.55 1019.36 1019.05 1018.78 1018.47 1018.11 1017.75 1017.44 1017.26 1017.11 1017.00 1016.82 1016.66 1016.54 1016.38 1016.27 1016.10 1015.85 1015.60
1010.68 1010.63 1010.77 1011.57 1012.55 1013.21 1013.41 1013.72 1014.56 1015.59 1016.16 1016.91 1017.45 1017.79 1018.01 1017.99 1017.79 1017.54 1017.51 1017.45 1017.84 1018.00 1018.15 1018.31 1018.44 1018.53 1018.65 1018.68 1018.77 1018.98 1019.19 1019.46 1019.62 1019.57 1019.61 1019.71 1019.75 1019.42 1019.18 1018.91 1018.69 1018.44 1018.14 1017.96 1017.81 1017.66 1017.50 1017.33 1017.16 1016.94 1016.71 1016.49 1016.28 1016.03
Wind_Speed
19 19 19 20 20 19 18 19 19 19 19 19 19 18 14 13 7 1 5 4 3 3 7 9 9 5 5 1 1 7 7 6 5 7 4 4 3 4 5 4 6 2 3 2 3 3 4 24 10 11 4 6 4 7
21 20 21 21 20 19 19 19 19 18 19 19 19 19 16 12 7 0 2 3 2 4 7 8 13 16 12 15 2 2 4 4 3 4 3 2 3 4 4 3 6 4 5 4 3 4 3 8 8 5 6 5 10 8
22 22 21 22 21 20 20 19 19 19 19 19 19 18 18 11 7 5 3 3 2 3 6 4 8 7 9 15 11 4 3 3 4 3 3 2 1 2 3 3 5 6 7 2 6 4 11 15 16 20 19 14 14 14
23 22 22 22 21 20 21 20 19 19 19 19 19 18 16 12 7 7 2 2 2 1 3 8 5 6 9 8 10 10 11 3 3 2 2 2 1 1 2 4 1 4 9 6 6 8 16 15 20 20 21 16 18 19
23 22 22 22 21 21 20 20 19 19 18 19 19 17 14 12 8 4 3 4 5 3 3 7 12 12 7 4 7 6 8 5 2 0 1 4 3 2 4 1 4 4 3 3 4 3 3 12 18 22 17 16 15 16
23 22 21 21 20 20 20 19 18 19 18 18 18 15 14 11 9 1 3 2 2 4 3 4 6 8 11 8 7 10 5 4 4 5 4 4 6 3 4 4 6 2 6 0 5 7 9 13 17 10 18 15 15 16
22 21 19 19 18 19 19 19 18 16 17 17 15 15 14 11 4 3 2 2 1 2 1 5 5 6 4 2 2 2 1 4 5 4 4 3 5 3 3 13 14 11 11 9 5 10 15 9 13 18 15 10 15 14
21 20 18 17 19 18 18 17 15 14 16 15 14 16 11 7 5 3 3 3 3 2 1 3 5 5 4 3 3 2 2 2 2 5 2 6 1 3 8 8 12 12 11 12 11 11 12 13 14 10 9 8 14 14
20 19 17 17 18 16 16 17 16 16 15 14 13 4 2 2 1 1 8 8 3 1 2 3 2 4 2 2 3 4 2 1 2 4 6 4 5 8 10 14 19 9 6 9 7 8 13 13 13 12 6 7 7 11
19 19 17 17 16 16 15 14 13 13 12 11 0 1 1 2 11 8 2 2 2 1 3 3 2 4 4 2 2 3 1 4 2 6 3 8 17 21 18 15 12 8 13 17 18 18 14 12 13 6 5 5 3 8
20 20 18 17 18 16 15 14 13 11 3 0 1 1 1 7 1 2 2 1 1 3 3 3 4 5 4 1 2 2 2 2 3 5 5 5 7 16 21 22 23 20 17 13 14 14 12 14 12 11 9 6 8 10
20 21 18 18 20 18 15 12 9 3 2 0 2 2 1 1 1 1 1 1 4 3 3 3 3 4 3 3 2 2 2 3 5 4 3 6 4 0 4 5 5 8 13 21 21 20 16 17 13 9 8 8 8 9
19 21 20 19 20 17 13 9 7 7 5 1 1 2 1 1 3 3 4 3 4 4 5 4 3 2 1 1 2 2 3 4 4 4 5 5 7 12 12 8 9 8 11 19 21 16 12 13 9 9 9 8 10 7
22 23 22 19 19 15 11 7 4 3 1 1 4 7 5 5 5 3 4 5 0 3 5 2 1 2 2 2 2 3 1 2 3 4 5 7 21 22 21 14 8 10 11 11 11 15 15 9 8 2 2 1 4 8
22 22 21 14 10 10 8 5 5 2 2 4 3 7 4 3 4 5 4 4 1 3 5 2 1 1 2 1 1 3 2 3 3 4 5 13 20 15 1 9 9 11 11 6 10 8 11 8 5 6 7 4 0 4
23 20 2 7 9 12 4 5 3 2 1 2 3 4 5 4 6 8 9 11 3 3 1 2 2 2 3 2 3 4 5 6 7 4 8 12 20 18 16 12 6 4 5 8 8 9 11 10 9 10 9 10 9 9
18 4 2 11 20 17 11 3 3 2 3 2 3 3 3 3 3 4 3 5 6 3 4 4 7 6 3 5 4 3 1 1 6 8 5 13 18 20 19 16 14 13 15 13 11 14 13 10 11 12 11 8 10 9
5 4 16 17 15 5 2 3 2 3 3 3 2 5 4 3 4 6 6 7 5 6 3 4 2 7 6 9 8 8 4 3 4 3 5 9 10 13 15 20 18 15 16 14 14 11 11 13 13 7 8 9 9 10
11 14 22 18 5 2 2 2 3 4 5 1 3 3 2 3 3 3 4 6 5 4 3 4 6 6 5 3 5 5 3 4 6 8 8 11 7 15 16 10 11 15 17 15 13 10 8 11 5 6 5 5 6 7
21 18 18 10 6 1 3 4 3 3 3 3 1 2 0 1 3 4 5 7 5 4 7 7 7 3 2 5 4 3 3 2 3 3 5 8 8 10 10 8 7 9 7 7 7 10 9 7 5 6 2 4 6 6
7 3 1 6 2 1 2 4 5 3 3 1 2 3 1 3 4 5 6 5 6 5 6 4 4 4 7 9 10 6 6 6 4 4 4 7 6 9 10 10 8 12 10 9 8 7 9 6 2 2 4 6 7 5
4 5 1 2 1 2 4 4 1 3 4 4 4 3 3 3 3 2 1 6 5 4 4 6 6 4 9 11 8 14 10 9 10 11 12 11 11 11 10 11 12 11 12 11 11 11 11 11 12 9 4 5 7 5
7 1 2 2 2 6 4 2 3 3 4 4 2 4 1 1 4 6 5 5 4 7 8 7 9 4 5 6 11 12 13 12 9 7 8 8 9 9 10 11 10 11 11 11 10 10 9 7 7 8 6 9 6 4
2 2 3 4 4 2 1 4 1 3 1 2 3 5 2 3 3 4 3 4 5 8 8 13 11 7 8 9 9 8 7 9 10 9 8 7 8 8 8 9 9 9 8 7 9 11 11 11 12 11 12 8 4 3
5 5 7 8 4 6 5 1 3 2 2 2 3 4 3 2 3 4 3 4 5 5 7 10 11 10 4 5 5 8 10 8 8 9 10 7 6 6 8 8 8 5 6 9 9 10 10 11 11 11 11 11 9 9
6 10 9 5 4 2 4 5 4 4 3 4 5 3 4 4 4 2 2 3 3 4 6 5 6 7 5 5 6 7 7 8 10 11 11 11 10 8 8 9 9 8 7 5 5 8 9 9 10 12 13 14 9 10
4 4 4 4 1 3 4 2 1 4 4 4 3 3 3 4 1 3 3 3 4 4 3 4 4 5 2 4 4 4 7 9 8 7 6 8 8 8 7 7 8 6 6 8 6 6 6 7 8 8 9 11 13 12
1 4 5 4 4 2 3 1 3 4 3 4 4 3 2 1 4 3 5 5 6 6 3 4 3 2 5 4 3 4 5 6 7 7 5 8 7 8 10 8 8 13 8 8 8 7 6 6 8 9 10 12 12 12
3 3 2 2 2 2 2 3 3 2 1 3 4 2 3 2 3 3 4 5 4 3 3 4 5 4 5 5 6 6 5 6 11 13 12 8 8 8 8 8 8 9 8 9 13 13 10 9 8 8 9 8 8 8
5 5 3 2 2 1 2 4 3 1 3 4 4 3 2 0 3 4 4 3 2 4 4 4 2 5 5 5 6 6 5 5 5 5 4 5 4 5 5 7 8 8 8 8 6 8 11 9 10 11 11 9 6 7
3 3 3 3 2 2 5 7 5 4 3 4 3 4 2 2 4 2 1 2 4 5 5 4 5 5 5 5 4 4 3 3 5 6 5 3 4 5 5 6 7 7 6 5 6 7 6 6 6 7 7 7 8 6
3 5 5 3 3 2 4 4 6 4 3 3 1 2 2 3 1 1 2 5 5 5 5 6 5 4 3 3 4 4 8 4 4 3 5 4 4 5 5 5 7 7 7 8 7 7 8 7 6 6 6 7 7 7
3 1 3 4 4 6 5 5 5 3 3 3 2 3 3 3 2 2 2 4 5 4 4 4 4 5 6 5 5 4 6 5 7 7 4 3 5 4 5 5 5 6 6 5 5 5 7 7 6 7 7 8 7 7
Wind_Direction
301 302 301 300 303 304 302 303 305 308 312 314 315 312 308 316 312 74 255 202 189 251 279 254 272 276 308 260 323 300 345 353 10 35 30 328 350 324 10 336 328 81 301 196 81 84 66 343 37 80 273 289 280 332
298 298 298 296 296 297 297 298 300 302 306 310 311 310 307 307 290 318 274 288 178 196 250 299 268 255 232 238 194 299 236 287 230 70 11 333 332 354 333 328 335 57 116 270 31 74 355 19 82 352 333 297 334 340
296 295 295 295 296 296 294 298 297 302 304 306 307 308 308 289 288 221 239 251 345 284 287 251 257 246 216 230 213 167 286 238 1 188 168 246 342 50 358 351 322 341 3 311 353 17 344 23 15 5 357 1 348 349
296 296 296 296 296 295 294 296 297 298 302 304 304 304 305 294 275 231 196 233 155 265 277 282 320 296 278 281 214 202 226 288 185 103 129 150 313 73 287 267 262 234 333 310 300 355 346 353 352 341 335 351 349 347
298 299 299 297 296 295 295 296 297 299 305 304 302 304 300 297 281 260 217 222 191 168 262 292 312 277 288 264 261 225 189 198 151 68 154 213 221 338 263 249 237 196 233 67 283 329 218 296 320 320 327 336 339 338
304 306 305 301 299 298 297 297 299 303 305 302 300 298 291 271 280 156 305 48 216 159 266 298 293 282 282 280 274 271 215 185 158 157 219 235 216 131 272 244 248 2 344 157 260 289 300 297 300 302 323 315 344 326
312 314 311 307 305 307 305 307 308 307 299 297 297 293 289 275 209 177 214 146 82 74 305 292 289 267 268 191 229 230 183 184 162 197 207 213 244 157 244 268 264 275 275 278 279 315 307 300 298 313 313 327 338 336
315 317 314 311 317 315 313 313 310 300 296 302 301 300 290 251 204 228 213 324 92 51 57 270 270 319 341 344 313 181 208 166 233 203 222 219 341 160 255 233 250 248 242 256 280 281 259 281 296 293 311 342 345 351
315 321 318 321 320 312 316 319 316 310 306 306 314 338 72 70 148 258 125 94 98 210 251 230 246 276 352 10 294 339 102 339 252 205 226 167 219 223 228 218 242 243 225 252 257 275 291 296 292 301 298 343 328 340
321 325 326 324 314 319 321 317 304 303 307 312 0 272 262 193 122 106 54 52 51 33 225 249 286 269 14 351 340 310 259 211 237 236 173 219 246 244 241 237 241 224 225 239 253 271 279 286 291 286 274 288 290 306
322 324 327 321 314 310 306 306 307 319 324 55 301 301 36 102 94 87 97 199 155 249 221 242 236 256 311 265 248 249 282 306 265 257 174 240 254 240 242 241 245 243 233 228 233 235 251 250 275 294 297 311 307 303
323 322 323 318 309 307 306 308 308 343 333 352 246 264 157 173 76 339 242 156 226 250 204 221 228 213 268 307 212 241 258 222 252 334 255 251 251 194 340 274 293 265 249 238 232 245 250 259 270 253 261 266 273 278
323 320 318 313 302 304 306 305 291 240 295 253 244 255 87 41 345 349 321 234 233 204 210 200 204 217 222 279 253 267 245 254 342 240 242 248 299 292 277 260 258 248 284 233 225 225 241 238 242 249 260 249 250 226
323 317 312 306 300 294 296 314 269 154 218 321 345 340 32 345 339 282 281 310 164 176 155 196 193 210 165 177 329 257 252 320 278 259 257 286 285 279 259 253 236 277 294 234 200 210 235 253 248 270 278 277 214 175
319 314 312 299 275 295 303 289 205 152 341 13 2 14 346 271 273 276 266 346 103 137 138 195 235 106 20 304 218 303 280 272 274 287 272 281 314 352 191 217 237 254 262 180 194 214 224 198 120 76 38 20 196 144
325 316 286 311 320 308 305 156 147 236 111 45 343 346 305 2 349 10 8 1 112 157 151 236 189 202 172 197 7 338 342 8 323 301 344 337 15 18 36 52 102 110 87 82 94 109 107 106 105 96 75 57 60 65
324 242 304 358 348 331 156 139 131 169 66 23 310 294 289 302 297 306 326 319 311 351 11 11 6 4 309 352 359 128 21 130 341 341 354 15 31 26 34 37 43 56 64 72 81 88 88 85 82 77 79 59 73 66
240 294 337 341 348 312 177 191 204 84 349 289 356 299 319 273 1 9 358 358 348 358 18 19 308 13 23 20 49 22 46 269 292 303 320 346 11 47 47 34 29 39 53 55 62 65 70 79 79 68 74 55 53 57
280 293 295 301 316 324 338 272 127 144 233 200 299 334 324 306 315 353 360 344 355 346 51 25 41 15 13 354 360 355 6 11 26 19 13 17 25 33 39 48 40 33 35 31 38 40 45 57 61 79 38 85 71 39
291 268 262 261 191 270 294 296 92 128 188 192 17 9 269 285 311 7 11 9 359 12 32 47 43 339 16 336 327 333 340 355 20 5 21 23 35 43 21 24 32 39 39 35 33 36 27 13 0 39 144 151 101 83
314 269 16 142 155 194 315 348 357 28 322 158 166 140 78 13 17 11 38 2 33 30 16 353 356 4 29 26 22 1 356 3 14 12 4 32 17 48 40 27 34 45 39 41 33 32 34 28 339 336 8 1 6 3
262 348 338 191 278 131 73 351 350 332 37 316 15 298 139 116 109 36 4 33 39 4 360 342 325 357 31 26 12 31 9 10 15 35 46 52 41 32 32 31 40 35 34 34 33 35 35 30 18 358 15 71 35 44
306 100 277 303 39 55 296 356 356 23 56 289 337 83 128 48 325 320 64 19 8 347 339 348 342 359 35 11 30 26 22 18 16 28 53 56 52 38 36 35 37 40 35 24 27 29 31 29 5 5 30 54 50 21
11 3 330 343 53 288 129 212 93 96 178 293 323 105 81 50 18 32 64 16 320 323 353 6 358 348 17 22 30 21 4 20 16 20 19 62 53 40 39 30 24 33 35 23 33 22 14 18 9 22 23 36 71 24
48 336 74 345 9 6 308 138 167 121 299 206 33 72 51 47 69 50 40 321 328 330 348 351 351 355 344 19 19 17 9 20 21 38 23 42 52 35 34 27 24 14 12 26 24 26 15 14 15 7 22 14 52 61
65 36 15 296 307 61 321 0 4 338 21 66 47 63 53 58 57 40 279 261 288 294 303 323 324 325 329 46 48 30 12 24 56 53 36 33 30 34 31 27 17 357 352 26 31 19 10 6 5 11 25 28 53 65
76 135 219 255 263 281 286 267 18 44 48 56 46 32 66 68 56 249 270 254 238 243 259 286 287 304 313 62 39 31 42 43 43 68 53 39 29 28 29 22 15 341 340 3 10 14 7 356 3 23 44 37 35 42
301 197 196 235 208 212 250 67 57 25 69 106 84 48 103 112 198 222 218 251 243 272 275 287 313 21 72 83 63 45 45 50 43 30 39 42 25 15 7 2 8 4 11 8 356 343 6 1 30 41 49 56 45 32
261 268 110 294 306 331 25 75 79 24 343 95 108 122 168 231 192 209 263 245 268 283 70 65 7 27 48 52 62 55 44 39 44 40 32 11 3 5 3 10 2 360 358 358 354 38 60 67 63 64 64 76 67 59
245 192 157 131 177 319 8 106 112 109 60 118 116 68 71 294 245 235 270 324 33 64 113 112 86 70 71 72 91 62 40 48 55 77 54 18 336 319 346 360 355 349 346 349 11 10 16 35 44 51 52 52 57 56
163 184 209 123 160 103 135 126 111 97 78 56 47 99 107 330 310 301 311 93 86 55 65 81 59 65 77 56 61 114 92 18 64 63 69 36 357 357 359 348 344 340 344 20 25 27 29 33 37 38 39 39 36 48
205 218 142 131 109 127 113 131 162 129 141 92 75 57 28 35 313 295 319 89 68 53 44 102 99 98 106 79 71 100 120 130 104 73 51 22 355 5 6 353 352 351 33 34 30 28 29 35 33 27 21 14 2 358
185 208 105 109 121 175 192 150 142 108 108 128 119 156 209 199 221 236 53 68 118 108 98 134 140 121 113 93 73 136 129 125 138 116 92 26 348 45 19 360 1 351 23 16 17 27 24 22 14 6 7 2 9 2